Flag for Germany Weather past 2 weeks in Bergkamen, North Rhine-Westphalia, Germany

Now
65 °F

Fog.


Feels Like: 65 °F
Forecast: 57 / 74 °F
Wind: 2 mph from Northeast

Location: Muenster / Osnabrueck

Current Time: Jul 29, 2014 at 3:10:06 AM

Latest Report: Jul 29, 2014 at 2:00 AM


Visibility: 6 mi

Pressure: 29.84 "Hg

Humidity: 99%

Dew point: 64 °F

Location of BergkamenLocation

Historic Weather in Bergkamen — Graph

°F

Bergkamen temperature yesterday

Maximum temperature yesterday: 80 °F (at 3:00 PM)
Minimum temperature yesterday: 61 °F (at 5:00 AM)
Average temperature yesterday: 69 °F

Past Weeks' High & Low Weather Summary

 TemperatureHumidityPressure
High93 °F (Jul 19, 3:00 PM)99% (Jul 21, 6:00 AM)30.19 "Hg (Jul 21, 6:00 AM)
Low53 °F (Jul 15, 3:00 AM)23% (Jul 19, 3:00 PM)29.73 "Hg (Jul 14, 2:00 AM)
Average70 °F75%29.98 "Hg
* Reported Jul 14 2:00 AM — Jul 29 2:00 AM, Bergkamen, Weather by CustomWeather, © 2014

Note: Actual official high and low records may vary slightly from our data, if they occured in-between our weather recording intervals... More about our weather records

Advertising

Bergkamen weather history for previous 24 hours

 ConditionsComfort  
Time TempWeatherWind HumidityBarometerVisibility
2:00 AM
Jul 29
65 °FFog.2 mph99%29.84 "Hg6 mi
1:00 AM65 °FThunderstorms. Overcast.1 mph97%29.87 "Hg7 mi
12:00 AM66 °FThunderstorms. Overcast.1 mph95%29.87 "Hg9 mi
11:00 PM
Jul 28
67 °FThundershowers. Overcast.3 mph97%29.87 "Hg7 mi
10:00 PM65 °FThundershowers. Low clouds.5 mph97%29.92 "Hg4 mi
9:00 PM66 °FThundershowers. Overcast.2 mph89%29.88 "Hg12 mi
8:00 PM66 °FThundershowers. Low clouds.3 mph88%29.86 "Hg8 mi
7:00 PM70 °FThundershowers. Low clouds.3 mph84%29.83 "Hg5 mi
6:00 PM72 °FThundershowers. Low clouds.3 mph71%29.84 "Hg2 mi
5:00 PM76 °FThundershowers. Low clouds.5 mph68%29.83 "Hg4 mi
4:00 PM78 °FOvercast.3 mph63%29.83 "Hg16 mi
3:00 PM80 °FPartly sunny.6 mph59%29.85 "Hg12 mi
2:00 PM80 °FScattered clouds.5 mph60%29.85 "Hg12 mi
1:00 PM77 °FScattered clouds.5 mph63%29.88 "Hg11 mi
12:00 PM75 °FPartly sunny.5 mph68%29.89 "Hg11 mi
11:00 AM74 °FPartly sunny.3 mph69%29.90 "Hg9 mi
10:00 AM73 °FOvercast.3 mph75%29.92 "Hg7 mi
9:00 AM70 °FOvercast.3 mph82%29.93 "Hg7 mi
8:00 AM67 °FFog.2 mph93%29.93 "Hg4 mi
7:00 AM63 °FFog.1 mph99%29.93 "Hg2 mi
6:00 AM62 °FFog.1 mph99%29.93 "Hg1 mi
5:00 AM61 °FFog.1 mph99%29.94 "Hg1 mi
4:00 AM62 °FFog.1 mph98%29.95 "Hg1 mi
3:00 AM62 °FFog.1 mph98%29.96 "Hg1 mi
Weather by CustomWeather, © 2014

See weather overviewHow to use our weather pages